| time (UTC) | temp F | wind direction | speed MPH | gust MPH | rain 1hr in | rain 24hr in | rain mn in | humidity % | barometer mb |
| 20260504210702 | 77 | 212 | 12.0 | 21.0 | 0.00 | 0.02 | 0.01 | 38 | 1004.3 |
| 20260504210602 | 78 | 216 | 12.0 | 21.0 | 0.00 | 0.02 | 0.01 | 37 | 1004.3 |
| 20260504210502 | 78 | 204 | 8.0 | 16.0 | 0.00 | 0.02 | 0.01 | 38 | 1004.4 |
| 20260504210403 | 78 | 203 | 5.0 | 13.0 | 0.00 | 0.02 | 0.01 | 38 | 1004.4 |
| 20260504210300 | 78 | 217 | 7.0 | 10.0 | 0.00 | 0.02 | 0.01 | 38 | 1004.4 |
| 20260504210203 | 78 | 210 | 8.0 | 14.0 | 0.00 | 0.02 | 0.01 | 38 | 1004.4 |
| 20260504210101 | 78 | 219 | 5.0 | 15.0 | 0.00 | 0.02 | 0.01 | 38 | 1004.5 |
| 20260504210001 | 77 | 217 | 6.0 | 8.0 | 0.00 | 0.02 | 0.01 | 38 | 1004.5 |
| 20260504205901 | 77 | 231 | 6.0 | 13.0 | 0.00 | 0.02 | 0.01 | 38 | 1004.5 |
| 20260504205802 | 77 | 211 | 8.0 | 17.0 | 0.00 | 0.02 | 0.01 | 38 | 1004.5 |
| 20260504205700 | 77 | 220 | 9.0 | 15.0 | 0.00 | 0.02 | 0.01 | 38 | 1004.6 |
| 20260504205601 | 77 | 215 | 6.0 | 17.0 | 0.00 | 0.02 | 0.01 | 39 | 1004.5 |
| 20260504205504 | 77 | 198 | 7.0 | 12.0 | 0.00 | 0.02 | 0.01 | 38 | 1004.6 |
| 20260504205400 | 77 | 223 | 8.0 | 14.0 | 0.00 | 0.02 | 0.01 | 40 | 1004.5 |
| 20260504205212 | 77 | 191 | 3.0 | 9.0 | 0.00 | 0.02 | 0.01 | 43 | 1004.6 |
| 20260504205202 | 77 | 191 | 5.0 | 10.0 | 0.00 | 0.02 | 0.01 | 42 | 1004.6 |
| 20260504205102 | 77 | 191 | 3.0 | 9.0 | 0.00 | 0.02 | 0.01 | 43 | 1004.6 |
| 20260504205002 | 77 | 227 | 3.0 | 7.0 | 0.00 | 0.02 | 0.01 | 44 | 1004.6 |
| 20260504204902 | 77 | 191 | 2.0 | 6.0 | 0.00 | 0.02 | 0.01 | 45 | 1004.6 |
| 20260504193701 | 75 | 255 | 0.0 | 2.0 | 0.00 | 0.02 | 0.01 | 46 | 1005.8 |
| 20260504193602 | 74 | 276 | 2.0 | 3.0 | 0.00 | 0.02 | 0.01 | 46 | 1005.9 |
| 20260504193502 | 74 | 248 | 3.0 | 9.0 | 0.00 | 0.02 | 0.01 | 45 | 1005.9 |
| 20260504193403 | 74 | 248 | 3.0 | 9.0 | 0.00 | 0.02 | 0.01 | 45 | 1005.9 |
| 20260504193302 | 74 | 236 | 5.0 | 10.0 | 0.00 | 0.02 | 0.01 | 46 | 1005.9 |
| 20260504193204 | 74 | 225 | 3.0 | 6.0 | 0.00 | 0.02 | 0.01 | 46 | 1006.0 |
| 20260504193102 | 74 | 225 | 3.0 | 6.0 | 0.00 | 0.02 | 0.01 | 46 | 1006.0 |
| 20260504173101 | 68 | 199 | 5.0 | 9.0 | 0.00 | 0.02 | 0.01 | 57 | 1006.3 |
| 20260504173001 | 68 | 169 | 3.0 | 6.0 | 0.00 | 0.02 | 0.01 | 57 | 1006.3 |
| 20260504172901 | 68 | 200 | 3.0 | 9.0 | 0.00 | 0.02 | 0.01 | 57 | 1006.4 |
| 20260504172803 | 68 | 186 | 3.0 | 5.0 | 0.00 | 0.02 | 0.01 | 57 | 1006.4 |
| 20260504172703 | 68 | 198 | 2.0 | 7.0 | 0.00 | 0.02 | 0.01 | 57 | 1006.4 |
| 20260504172601 | 68 | 218 | 3.0 | 5.0 | 0.00 | 0.02 | 0.01 | 57 | 1006.3 |
| 20260504172502 | 68 | 205 | 2.0 | 8.0 | 0.00 | 0.02 | 0.01 | 57 | 1006.2 |
| 20260504172401 | 69 | 95 | 1.0 | 1.0 | 0.00 | 0.02 | 0.01 | 56 | 1006.1 |
| 20260504172303 | 69 | 186 | 1.0 | 5.0 | 0.00 | 0.02 | 0.01 | 57 | 1006.2 |
| 20260504172200 | 69 | 179 | 1.0 | 5.0 | 0.00 | 0.02 | 0.01 | 56 | 1006.4 |
| 20260504172100 | 68 | 182 | 3.0 | 7.0 | 0.00 | 0.02 | 0.01 | 56 | 1006.5 |
| 20260504172002 | 68 | 175 | 3.0 | 8.0 | 0.00 | 0.02 | 0.01 | 56 | 1006.6 |
| 20260504171905 | 68 | 192 | 6.0 | 12.0 | 0.00 | 0.02 | 0.01 | 56 | 1006.6 |
| 20260504171801 | 68 | 223 | 3.0 | 7.0 | 0.00 | 0.02 | 0.01 | 56 | 1006.6 |
| 20260504171702 | 68 | 216 | 6.0 | 10.0 | 0.00 | 0.02 | 0.01 | 56 | 1006.6 |
| 20260504171602 | 69 | 220 | 6.0 | 13.0 | 0.00 | 0.02 | 0.01 | 56 | 1006.6 |
| 20260504171402 | 68 | 225 | 7.0 | 12.0 | 0.00 | 0.02 | 0.01 | 56 | 1006.6 |
| 20260504171301 | 68 | 223 | 10.0 | 16.0 | 0.00 | 0.02 | 0.01 | 55 | 1006.6 |
| 20260504171201 | 68 | 213 | 8.0 | 15.0 | 0.00 | 0.02 | 0.01 | 55 | 1006.6 |
| 20260504171101 | 69 | 219 | 7.0 | 13.0 | 0.00 | 0.02 | 0.01 | 55 | 1006.6 |
| 20260504171001 | 69 | 223 | 5.0 | 9.0 | 0.00 | 0.02 | 0.01 | 56 | 1006.6 |
| 20260504170901 | 69 | 217 | 6.0 | 9.0 | 0.00 | 0.02 | 0.01 | 56 | 1006.6 |
| 20260504170801 | 69 | 207 | 7.0 | 12.0 | 0.00 | 0.02 | 0.01 | 55 | 1006.5 |